Location: Columbia
(38.9520°N, 92.3340°W)
Time: 14:15:38
(UTC-05:00)

Iridium 52 - Visible Passes

Search period start: 27 June 2017 00:00
Search period end: 07 July 2017 00:00
Orbit: 776 x 779 km, 86.4° (Epoch: 26 June)

Date Brightness Start Highest point End Pass type
(mag) Time Alt. Az. Time Alt. Az. Time Alt. Az.
27 Jun 9.1 04:28:51 10° E 04:30:20 11° ENE 04:31:48 10° ENE visible
29 Jun 8.0 04:58:57 10° SE 05:03:27 31° E 05:07:59 10° NNE visible
30 Jun 8.7 04:26:59 10° ESE 04:30:13 17° E 04:33:26 10° NE visible
02 Jul 7.2 04:58:32 10° SSE 05:03:27 45° E 05:08:23 10° NNE visible
03 Jul 8.3 04:26:02 10° SE 04:30:08 24° E 04:34:16 10° NNE visible
04 Jul 8.8 03:54:40 10° ESE 03:56:57 13° ENE 03:59:14 10° NE visible
05 Jul 6.5 04:58:22 10° S 05:03:29 66° E 05:08:40 10° N visible
06 Jul 7.6 04:25:26 10° SSE 04:30:07 35° E 04:34:48 10° NNE visible
